Weather History for Gillette, WY

Change the Weather History Date:

Friday, January 11, 2013

  Actual Average Record
Temperature  
Mean Temperature 14 °F 26 °F  
Max Temperature 25 °F 38 °F - ()
Min Temperature 2 °F 14 °F - ()
Degree Days  
Heating Degree Days 51 39  
Month to date heating degree days 438 434  
Since 1 July heating degree days 3278 3575  
Cooling Degree Days 0 0  
Month to date cooling degree days 0 0  
Year to date cooling degree days 0 0  
Moisture  
Dew Point 6 °F    
Average Humidity 87    
Maximum Humidity 100    
Minimum Humidity 73    
Precipitation  
Precipitation 0.03 in 0.01 in - ()
Month to date precipitation 0.07 0.11  
Year to date precipitation 0.07 0.11  
Sea Level Pressure  
Sea Level Pressure 29.68 in    
Wind  
Wind Speed 24 mph (NNW)    
Max Wind Speed 38 mph    
Max Gust Speed 47 mph    
Visibility 4 miles    
Events Snow    
T = Trace of Precipitation, MM = Missing Value Source: NWS Daily Summary

Daily Weather History Graph

Daily Weather History Graph

Search for Another Location

Airport:

Trip Planner

Search our weather history database for the weather conditions in past years. The results will help you decide how hot, cold, wet, or windy it might be!

Date:

Astronomy

Jan. 11, 2013 Rise Set
Actual Time 7:36 AM MST 4:44 PM MST
Civil Twilight 7:03 AM MST 5:17 PM MST
Nautical Twilight 6:27 AM MST 5:53 PM MST
Astronomical Twilight 5:52 AM MST 6:28 PM MST
Moon 7:09 AM MST (1/11) 5:07 PM MST (1/11)
Length of Visible Light 10h 13m
Length of Day
9h 08m
Waning Crescent, 0% of the Moon is Illuminated
Jan 11
Waning Crescent
Jan 11
New
Jan 18
First Quarter
Jan 26
Full
Feb 3
Last Quarter

Hourly Weather History & Observations

Time (MST) Temp. Windchill Dew Point Humidity Pressure Visibility Wind Dir Wind Speed Gust Speed Precip Events Conditions
12:53 AM 23.0 °F 10.1 °F 23.0 °F 100% 29.55 in 2.0 mi North 15.0 mph - N/A   Overcast
1:13 AM 21.2 °F 6.8 °F 21.2 °F 100% 29.51 in 3.0 mi North 17.3 mph - N/A   Overcast
1:53 AM 21.9 °F 8.7 °F 21.0 °F 96% 29.56 in 4.0 mi North 15.0 mph - N/A   Overcast
2:53 AM 19.9 °F 5.7 °F 19.0 °F 96% 29.57 in 4.0 mi North 16.1 mph - N/A   Overcast
3:12 AM 19.4 °F 3.6 °F 17.6 °F 93% 29.51 in 1.8 mi North 19.6 mph - 0.00 in Snow Light Snow
3:34 AM 17.6 °F 1.3 °F 17.6 °F 100% 29.50 in 1.5 mi North 19.6 mph - 0.00 in Snow Light Snow
3:46 AM 17.6 °F 3.7 °F 15.8 °F 93% 29.51 in 2.0 mi NNW 13.8 mph - 0.01 in Snow Light Snow
3:49 AM 17.6 °F 2.7 °F 15.8 °F 93% 29.51 in 2.5 mi North 16.1 mph - 0.01 in Snow Light Snow
3:53 AM 18.0 °F 1.3 °F 16.0 °F 92% 29.55 in 3.0 mi North 20.7 mph 25.3 mph 0.01 in Snow Light Snow
3:59 AM 17.6 °F 3.2 °F 15.8 °F 93% 29.51 in 1.8 mi North 15.0 mph 25.3 mph 0.00 in Snow Light Snow
4:05 AM 17.6 °F 2.7 °F 15.8 °F 93% 29.51 in 0.8 mi NNW 16.1 mph - 0.00 in Snow Light Snow
4:26 AM 15.8 °F -1.9 °F 12.2 °F 86% 29.51 in 0.8 mi NNW 21.9 mph 27.6 mph 0.01 in Snow Light Snow
4:33 AM 15.8 °F -1.9 °F 12.2 °F 86% 29.52 in 1.2 mi NNW 21.9 mph - 0.01 in Snow Light Snow
4:37 AM 14.0 °F -3.0 °F 12.2 °F 93% 29.52 in 2.0 mi NNW 18.4 mph 26.5 mph 0.01 in Snow Light Snow
4:53 AM 14.0 °F -4.3 °F 12.0 °F 92% 29.60 in 1.2 mi NW 21.9 mph 26.5 mph 0.01 in Snow Light Snow
5:06 AM 12.2 °F -5.8 °F 10.4 °F 92% 29.52 in 2.5 mi NW 19.6 mph 28.8 mph 0.00 in Snow Light Snow
5:16 AM 12.2 °F -6.3 °F 10.4 °F 92% 29.52 in 3.0 mi NNW 20.7 mph 26.5 mph 0.00 in Snow Light Snow
5:40 AM 12.2 °F -5.8 °F 8.6 °F 85% 29.52 in 6.0 mi NNW 19.6 mph 31.1 mph 0.00 in Snow Light Snow
5:53 AM 12.0 °F -6.0 °F 9.0 °F 88% 29.61 in 6.0 mi NNW 19.6 mph - 0.00 in Snow Light Snow
6:02 AM 12.2 °F -7.1 °F 8.6 °F 85% 29.51 in 4.0 mi NNW 23.0 mph 29.9 mph 0.00 in Snow Light Snow
6:12 AM 12.2 °F -4.3 °F 8.6 °F 85% 29.52 in 2.5 mi NW 16.1 mph - 0.00 in Snow Light Snow
6:20 AM 10.4 °F -8.2 °F 8.6 °F 92% 29.53 in 4.0 mi NW 19.6 mph - 0.00 in Snow Light Snow
6:48 AM 10.4 °F -6.6 °F 6.8 °F 85% 29.55 in 10.0 mi NNW 16.1 mph - 0.00 in   Overcast
6:53 AM 10.0 °F -4.5 °F 7.0 °F 87% 29.67 in 10.0 mi NNW 11.5 mph 23.0 mph 0.00 in   Overcast
7:05 AM 10.4 °F -6.6 °F 8.6 °F 92% 29.56 in 6.0 mi NW 16.1 mph - 0.00 in Snow Light Snow
7:53 AM 10.0 °F -8.1 °F 6.1 °F 84% 29.70 in 9.0 mi NNW 18.4 mph 26.5 mph 0.00 in   Overcast
8:16 AM 8.6 °F -10.5 °F 5.0 °F 85% 29.58 in 10.0 mi NNW 19.6 mph 32.2 mph N/A   Overcast
8:53 AM 9.0 °F -11.4 °F 5.0 °F 84% 29.75 in 4.0 mi NNW 23.0 mph 28.8 mph 0.00 in Snow Light Snow
9:15 AM 8.6 °F -11.4 °F 6.8 °F 92% 29.60 in 2.0 mi NNW 21.9 mph 26.5 mph 0.00 in Snow Light Snow
9:30 AM 8.6 °F -9.5 °F 6.8 °F 92% 29.59 in 3.0 mi NNW 17.3 mph 28.8 mph 0.00 in Snow Light Snow
9:39 AM 8.6 °F -10.0 °F 5.0 °F 85% 29.59 in 2.0 mi NNW 18.4 mph 24.2 mph 0.00 in Snow Light Snow
9:53 AM 9.0 °F -12.6 °F 5.0 °F 84% 29.74 in 2.5 mi NW 26.5 mph 31.1 mph 0.00 in Snow Light Snow
10:00 AM 8.6 °F -12.3 °F 5.0 °F 85% 29.59 in 3.0 mi NNW 24.2 mph 32.2 mph 0.00 in Snow Light Snow
10:36 AM 8.6 °F -13.1 °F 3.2 °F 79% 29.62 in 6.0 mi NW 26.5 mph 33.4 mph 0.00 in Snow Light Snow
10:53 AM 8.1 °F -12.6 °F 3.9 °F 83% 29.77 in 6.0 mi NNW 23.0 mph - 0.00 in   Overcast
11:32 AM 8.6 °F -13.8 °F 3.2 °F 79% 29.60 in 7.0 mi NW 28.8 mph 36.8 mph N/A   Overcast
11:51 AM 8.6 °F -11.9 °F 3.2 °F 79% 29.61 in 2.5 mi NW 23.0 mph 31.1 mph 0.00 in Snow Light Snow
11:53 AM 8.1 °F -12.2 °F 3.0 °F 80% 29.76 in 2.0 mi NW 21.9 mph 31.1 mph 0.00 in Snow Light Snow
12:00 PM 8.6 °F -12.3 °F 3.2 °F 79% 29.60 in 1.5 mi NW 24.2 mph 32.2 mph 0.00 in Snow Light Snow
12:53 PM 8.6 °F -14.5 °F 1.4 °F 73% 29.59 in 2.5 mi NW 31.1 mph 38.0 mph N/A   Overcast
1:33 PM 8.6 °F -11.9 °F 3.2 °F 79% 29.61 in 4.0 mi NW 23.0 mph 34.5 mph 0.00 in   Haze
1:53 PM 8.1 °F -13.0 °F 3.0 °F 80% 29.78 in 4.0 mi NW 24.2 mph 32.2 mph 0.00 in   Haze
2:28 PM 8.6 °F -11.4 °F 1.4 °F 73% 29.64 in 10.0 mi NW 21.9 mph 33.4 mph N/A   Mostly Cloudy
2:49 PM 6.8 °F -16.6 °F -0.4 °F 72% 29.65 in 9.0 mi NW 29.9 mph 38.0 mph N/A   Mostly Cloudy
2:53 PM 7.0 °F -15.6 °F -0.9 °F 70% 29.83 in 9.0 mi NW 27.6 mph 38.0 mph N/A   Mostly Cloudy
3:53 PM 6.1 °F -14.8 °F -0.9 °F 73% 29.89 in 10.0 mi NNW 21.9 mph 33.4 mph N/A   Overcast
4:53 PM 5.0 °F -17.5 °F -2.0 °F 73% 29.94 in 10.0 mi NW 25.3 mph 36.8 mph N/A   Overcast
5:53 PM 3.9 °F -19.8 °F -2.0 °F 76% 29.98 in 10.0 mi NW 27.6 mph 35.7 mph N/A   Overcast
6:53 PM 3.9 °F -17.6 °F -0.9 °F 80% 30.00 in 6.0 mi NW 21.9 mph - 0.00 in   Haze
7:29 PM 3.2 °F -18.6 °F -2.2 °F 78% 29.78 in 4.0 mi NW 21.9 mph 35.7 mph N/A   Haze
7:43 PM 3.2 °F -19.9 °F -2.2 °F 78% 29.78 in 2.5 mi NW 25.3 mph 34.5 mph 0.00 in Snow Light Snow
7:53 PM 3.0 °F -22.1 °F -2.9 °F 76% 30.01 in 3.0 mi NW 31.1 mph 39.1 mph 0.00 in   Haze
8:34 PM 1.4 °F -23.9 °F -2.2 °F 85% 29.79 in 2.5 mi NW 29.9 mph 35.7 mph 0.00 in Snow Light Snow
8:53 PM 1.9 °F -22.0 °F -2.9 °F 80% 30.03 in 1.5 mi NW 26.5 mph 34.5 mph 0.00 in Snow Light Snow
9:53 PM 1.9 °F -22.0 °F -2.0 °F 83% 30.03 in 1.0 mi NW 26.5 mph 38.0 mph 0.00 in Snow Light Snow
10:05 PM 1.4 °F -23.5 °F -2.2 °F 85% 29.81 in 1.0 mi NW 28.8 mph 40.3 mph 0.00 in Snow Light Snow
10:19 PM 1.4 °F -24.3 °F -2.2 °F 85% 29.81 in 1.2 mi NW 31.1 mph 39.1 mph 0.00 in Snow Light Snow
10:53 PM 1.9 °F -23.2 °F -2.0 °F 83% 30.06 in 1.5 mi NW 29.9 mph 39.1 mph 0.00 in Snow Light Snow
11:07 PM 1.4 °F -25.0 °F -2.2 °F 85% 29.82 in 0.8 mi NW 33.4 mph 44.9 mph 0.00 in Snow Light Snow
11:30 PM 1.4 °F -23.5 °F -2.2 °F 85% 29.83 in 1.0 mi NW 28.8 mph 40.3 mph 0.00 in Snow Light Snow
11:53 PM 1.9 °F -23.6 °F -2.9 °F 80% 30.08 in 2.0 mi NW 31.1 mph 38.0 mph 0.01 in Snow Light Snow